Location: Courcelles
(49.2596°N, 1.7419°E)
Time: 02:50:23
(UTC+00:00)

SL-19 R/B - Pass Details

Date: 17 November 2025
Orbit: 795 x 1008 km, 99.6° (Epoch: 04 December)

Event Time Altitude Azimuth Distance (km) Brightness Sun altitude
Rises 18:08:04 0° 159° (SSE) 3,307 7.2 -19.2°
Reaches altitude 10° 18:10:23 10° 159° (SSE) 2,369 6.4 -19.6°
Maximum altitude 18:15:35 83° 72° (ENE) 809 4.0 -20.4°
Drops below altitude 10° 18:20:50 10° 345° (NNW) 2,392 6.7 -21.3°
Sets 18:23:11 0° 345° (NNW) 3,341 7.4 -21.7°
